Tracking 31027 objects as of 19-Jul-2025
HD Live streaming from Space Station
objects crossing your sky now

DMSP 5D-2 F9 DEB

Track DMSP 5D-2 F9 DEB now!
10-day predictions


NORAD ID: 39046
Int'l Code: 1988-006M
Perigee: 763.9 km
Apogee: 865.6 km
Inclination: 98.6 °
Period: 101.0 minutes
Semi major axis: 7185 km
RCS: 0.0338 m2 (small)
Launch date: February 3, 1988
Source: United States (US)
Launch site: AIR FORCE WESTERN TEST RANGE (AFWTR)

Note: This is SATELLITE DEBRIS
Your satellite tracking list
HAWK-4A
Track 1 satellite(s)




NASA's NSSDC Master Catalog

Two Line Element Set (TLE):
1 39046U 88006M   25198.49067529  .00001653  00000-0  70277-3 0  9992
2 39046  98.6238  19.0243 0070741 206.5598 178.9752 14.25256064648960
Source of the keplerian elements: AFSPC